Toronto, Ontario

5:24 PM EDT on April 27, 2017 (GMT -0400)
Toronto

Weather History for CYTZ - December, 2012

Change the Weather History Date:

Sunday, December 9, 2012

  Actual Average Record
Temperature  
Mean Temperature 32 °F -  
Max Temperature 39 °F 33 °F 52 °F (2015)
Min Temperature 26 °F 22 °F 10 °F (2002)
Degree Days  
Heating Degree Days 32    
Moisture  
Dew Point 31 °F    
Average Humidity 87    
Maximum Humidity 100    
Minimum Humidity 39    
Precipitation  
Precipitation 0.20 in 0.09 in - ()
Sea Level Pressure  
Sea Level Pressure 30.01 in    
Wind  
Wind Speed 18 mph ()    
Max Wind Speed 34 mph    
Max Gust Speed 44 mph    
Visibility 6.8 miles    
Events Rain , Snow    
Averages and records for this station are not official NWS values.
T = Trace of Precipitation, MM = Missing Value Source: Averaged Metar Reports

Daily Weather History Graph

Daily Weather History Graph

Search for Another Location

Airport or City:

Trip Planner

Search our weather history database for the weather conditions in past years. The results will help you decide how hot, cold, wet, or windy it might be!

Date:

Astronomy

Dec. 09, 2012 Rise Set
Actual Time 7:39 AM EST 4:40 PM EST
Civil Twilight 7:07 AM EST 5:13 PM EST
Nautical Twilight 6:30 AM EST 5:49 PM EST
Astronomical Twilight 5:56 AM EST 6:24 PM EST
Moon 3:04 AM EST (12/9) 1:51 PM EST (12/9)
Length of Visible Light 10h 06m
Length of Day
9h 01m
Waning Crescent, 19% of the Moon is Illuminated
Dec 9
Waning Crescent
Dec 13
New
Dec 20
First Quarter
Dec 28
Full
Jan 4
Last Quarter

Hourly Weather History & Observations

Time (EST) Temp. Windchill Dew Point Humidity Pressure Visibility Wind Dir Wind Speed Gust Speed Precip Events Conditions
12:00 AM 33.8 °F 25.3 °F 24.8 °F 70% 30.19 in 9.0 mi NW 11.5 mph 21.9 mph N/A   Overcast
1:00 AM 32 °F - 23 °F 60% 30.21 in 10 mi North 12.7 mph - -   Overcast
1:00 AM 32.0 °F 22.1 °F 23.0 °F 69% 30.21 in 9.0 mi North 13.8 mph 19.6 mph N/A   Overcast
1:42 AM 30.2 °F 20.8 °F 21.2 °F 69% 30.25 in 9.0 mi NW 11.5 mph - N/A   Overcast
2:00 AM 30.2 °F 20.2 °F 19.4 °F 64% 30.25 in 9.0 mi NNW 12.7 mph 20.7 mph N/A   Scattered Clouds
3:00 AM 28.4 °F 21.2 °F 17.6 °F 64% 30.27 in 9.0 mi North 6.9 mph - N/A   Scattered Clouds
4:00 AM 28.4 °F 23.3 °F 15.8 °F 59% 30.29 in 9.0 mi WNW 4.6 mph - N/A   Overcast
5:00 AM 28.4 °F 22.2 °F 15.8 °F 59% 30.28 in 9.0 mi NW 5.8 mph - N/A   Overcast
6:00 AM 28.4 °F 19.7 °F 14.0 °F 55% 30.28 in 9.0 mi NNE 9.2 mph - N/A   Overcast
7:00 AM 28 °F - 13 °F 39% 30.30 in 10 mi NNE 6.9 mph - -  
7:00 AM 28.4 °F 19.7 °F 12.2 °F 51% 30.29 in 9.0 mi NE 9.2 mph - N/A   Mostly Cloudy
8:00 AM 26.6 °F 16.2 °F 14.0 °F 59% 30.32 in 9.0 mi ENE 11.5 mph - N/A   Overcast
9:00 AM 28.4 °F 16.6 °F 17.6 °F 64% 30.31 in 9.0 mi ENE 16.1 mph - N/A   Overcast
10:00 AM 26.6 °F 15.7 °F 19.4 °F 74% 30.30 in 9.0 mi NE 12.7 mph - N/A   Mostly Cloudy
10:10 AM 28.4 °F 18.0 °F 21.2 °F 74% 30.31 in 9.0 mi NE 12.7 mph 19.6 mph N/A   Mostly Cloudy
11:00 AM 30.2 °F 18.1 °F 24.8 °F 80% 30.26 in 9.0 mi ENE 18.4 mph - N/A   Overcast
12:00 PM 32.0 °F 21.6 °F 28.4 °F 87% 30.22 in 9.0 mi NE 15.0 mph 20.7 mph N/A   Overcast
1:00 PM 36 °F - 30 °F 70% 30.19 in 10 mi ENE 17.3 mph - -   Overcast
1:00 PM 35.6 °F 25.5 °F 30.2 °F 81% 30.19 in 9.0 mi ENE 17.3 mph - N/A   Overcast
2:00 PM 33.8 °F 22.5 °F 30.2 °F 87% 30.17 in 9.0 mi NE 19.6 mph 26.5 mph N/A   Overcast
3:00 PM 33.8 °F 20.5 °F 30.2 °F 87% 30.13 in 9.0 mi ENE 27.6 mph 36.8 mph N/A   Overcast
3:41 PM 35.6 °F 22.3 °F 32.0 °F 87% 30.12 in 9.0 mi ENE 31.1 mph 36.8 mph N/A   Overcast
4:00 PM 35.6 °F 22.7 °F 32.0 °F 87% 30.12 in 9.0 mi ENE 28.8 mph 35.7 mph N/A   Overcast
5:00 PM 33.8 °F 19.4 °F 32.0 °F 93% 30.06 in 9.0 mi ENE 33.4 mph 42.6 mph N/A   Overcast
5:09 PM 33.8 °F 19.2 °F 30.2 °F 87% 30.04 in 9.0 mi ENE 34.5 mph 43.7 mph N/A Rain Light Rain
5:13 PM 33.8 °F 19.2 °F 30.2 °F 87% 30.04 in 9.0 mi ENE 34.5 mph 43.7 mph N/A Rain Light Rain
5:22 PM 33.8 °F 19.9 °F 30.2 °F 87% 30.04 in 9.0 mi ENE 31.1 mph 42.6 mph N/A Rain Light Rain
5:30 PM 33.8 °F 19.9 °F 30.2 °F 87% 30.04 in 9.0 mi ENE 31.1 mph 42.6 mph N/A   Overcast
5:35 PM 33.8 °F 19.4 °F 32.0 °F 93% 30.03 in 9.0 mi ENE 33.4 mph 43.7 mph N/A Rain Light Rain
5:38 PM 33.8 °F 19.9 °F 32.0 °F 93% 30.03 in 9.0 mi ENE 31.1 mph 43.7 mph N/A Rain , Snow Light Snow
5:43 PM 33.8 °F 20.1 °F 32.0 °F 93% 30.03 in 9.0 mi ENE 29.9 mph 41.4 mph N/A Snow Light Snow
5:50 PM 33.8 °F 19.6 °F 32.0 °F 93% 30.02 in 5.0 mi ENE 32.2 mph 40.3 mph N/A Snow Light Snow
6:00 PM 33.8 °F 20.1 °F 32.0 °F 93% 30.02 in 3.0 mi ENE 29.9 mph 40.3 mph N/A Snow Light Snow
6:12 PM 33.8 °F 19.9 °F 32.0 °F 93% 30.01 in 6.0 mi ENE 31.1 mph 36.8 mph N/A Snow Light Snow
6:14 PM 33.8 °F 19.9 °F 32.0 °F 93% 30.01 in 8.0 mi ENE 31.1 mph 38.0 mph N/A Rain , Snow Light Snow
6:17 PM 33.8 °F 19.9 °F 32.0 °F 93% 30.01 in 9.0 mi ENE 31.1 mph 38.0 mph N/A Rain Light Rain
6:20 PM 33.8 °F 20.3 °F 32.0 °F 93% 30.01 in 9.0 mi ENE 28.8 mph 38.0 mph N/A Rain Light Rain
6:29 PM 33.8 °F 19.6 °F 32.0 °F 93% 30.00 in 5.0 mi ENE 32.2 mph - N/A Rain Light Rain
6:33 PM 33.8 °F 20.3 °F 33.8 °F 100% 29.99 in 4.0 mi ENE 28.8 mph 38.0 mph N/A   Overcast
6:38 PM 33.8 °F 19.9 °F 33.8 °F 100% 29.99 in 3.0 mi ENE 31.1 mph 38.0 mph N/A   Overcast
6:48 PM 35.6 °F 23.4 °F 33.8 °F 93% 29.99 in 6.0 mi East 25.3 mph 36.8 mph N/A   Overcast
6:54 PM 35.6 °F 23.4 °F 33.8 °F 93% 29.99 in 5.0 mi East 25.3 mph 36.8 mph N/A   Overcast
6:57 PM 35.6 °F 23.2 °F 33.8 °F 93% 29.99 in 5.0 mi East 26.5 mph 33.4 mph N/A   Overcast
7:00 PM 35 °F - 34 °F 93% 29.98 in 4 mi East 25.3 mph - -   Unknown Precipitation
7:00 PM 35.6 °F 23.0 °F 33.8 °F 93% 29.98 in 4.0 mi East 27.6 mph - N/A   Overcast
7:05 PM 35.6 °F 23.7 °F 33.8 °F 93% 29.98 in 4.0 mi East 24.2 mph 36.8 mph N/A   Overcast
7:24 PM 35.6 °F 23.7 °F 33.8 °F 93% 29.95 in 3.0 mi East 24.2 mph 38.0 mph N/A   Overcast
7:28 PM 35.6 °F 22.5 °F 33.8 °F 93% 29.94 in 4.0 mi East 29.9 mph 38.0 mph N/A   Overcast
7:29 PM 35.6 °F 22.5 °F 33.8 °F 93% 29.94 in 6.0 mi East 29.9 mph 38.0 mph N/A   Overcast
7:33 PM 35.6 °F 23.7 °F 33.8 °F 93% 29.94 in 9.0 mi East 24.2 mph 38.0 mph N/A Rain Light Rain
7:50 PM 35.6 °F 22.3 °F 33.8 °F 93% 29.92 in 9.0 mi East 31.1 mph 40.3 mph N/A Rain Light Rain
7:53 PM 35.6 °F 22.1 °F 33.8 °F 93% 29.92 in 9.0 mi East 32.2 mph 40.3 mph N/A Rain Light Rain
8:00 PM 35.6 °F 22.7 °F 33.8 °F 93% 29.92 in 9.0 mi East 28.8 mph 39.1 mph N/A Rain Light Rain
8:17 PM 35.6 °F 22.3 °F 33.8 °F 93% 29.89 in 5.0 mi ENE 31.1 mph 40.3 mph N/A Rain Light Rain
8:51 PM 37.4 °F 25.9 °F 35.6 °F 93% 29.87 in 6.0 mi ENE 25.3 mph 36.8 mph N/A Rain Light Rain
9:00 PM 37.4 °F 25.2 °F 35.6 °F 93% 29.86 in 7.0 mi ENE 28.8 mph 34.5 mph N/A Rain Light Rain
9:22 PM 37.4 °F 26.4 °F 37.4 °F 100% 29.85 in 5.0 mi East 23.0 mph 31.1 mph N/A Rain Light Rain
9:58 PM 39.2 °F 30.8 °F 37.4 °F 93% 29.83 in 6.0 mi East 15.0 mph 24.2 mph N/A Rain Light Rain
10:00 PM 39.2 °F 29.8 °F 37.4 °F 93% 29.82 in 6.0 mi East 18.4 mph 24.2 mph N/A Rain Light Rain
10:02 PM 39.2 °F 29.6 °F 37.4 °F 93% 29.82 in 5.0 mi East 19.6 mph - N/A Rain Light Rain
10:05 PM 39.2 °F 29.6 °F 37.4 °F 93% 29.81 in 4.0 mi East 19.6 mph - N/A Rain Light Rain
10:06 PM 39.2 °F 29.8 °F 37.4 °F 93% 29.81 in 4.0 mi East 18.4 mph 25.3 mph N/A Rain Light Rain
10:15 PM 39.2 °F 30.2 °F 39.2 °F 100% 29.81 in 6.0 mi East 17.3 mph 26.5 mph N/A Rain Light Rain
10:22 PM 39.2 °F 29.6 °F 39.2 °F 100% 29.81 in 5.0 mi East 19.6 mph 26.5 mph N/A Rain Light Rain
10:36 PM 39.2 °F 30.5 °F 39.2 °F 100% 29.79 in 4.0 mi East 16.1 mph 23.0 mph N/A Rain Light Rain
10:40 PM 39.2 °F 30.8 °F 39.2 °F 100% 29.79 in 3.0 mi East 15.0 mph 23.0 mph N/A Rain Light Rain
10:42 PM 39.2 °F 30.8 °F 39.2 °F 100% 29.78 in 2.5 mi East 15.0 mph 23.0 mph N/A Rain Light Rain
10:44 PM 39.2 °F 30.8 °F 39.2 °F 100% 29.78 in 2.5 mi East 15.0 mph 21.9 mph N/A Rain Light Rain
10:49 PM 39.2 °F 30.5 °F 39.2 °F 100% 29.77 in 3.0 mi East 16.1 mph - N/A Rain Light Rain
10:50 PM 39.2 °F 30.5 °F 39.2 °F 100% 29.77 in 3.0 mi East 16.1 mph - N/A Rain Light Rain
10:57 PM 39.2 °F 30.5 °F 39.2 °F 100% 29.77 in 4.0 mi East 16.1 mph 24.2 mph N/A Rain Light Rain
11:00 PM 39.2 °F 30.5 °F 39.2 °F 100% 29.78 in 4.0 mi East 16.1 mph 24.2 mph N/A Rain Light Rain
11:04 PM 39.2 °F 31.6 °F 39.2 °F 100% 29.78 in 4.0 mi East 12.7 mph 24.2 mph N/A Rain Light Rain
11:15 PM 39.2 °F 30.8 °F 39.2 °F 100% 29.77 in 4.0 mi East 15.0 mph 23.0 mph N/A   Overcast
11:21 PM 39.2 °F 31.6 °F 39.2 °F 100% 29.76 in 3.0 mi East 12.7 mph 21.9 mph N/A Rain Light Rain